ASA197 PAKT-KSEA

Flight info

Callsign ASA197
Flight time N/A
Altitude 31000
Route ANN3 JIZPU YJQ VIXOR MARNR8
Aircraft MD83/M-SDFGIRWY/S

Departure

Time 2026-04-25 05:24
Airport Ketchikan International Airport (PAKT)

Arrival

Time N/A
Airport Seattle–Tacoma International Airport (KSEA)
Time Latitude Longitude Altitude Speed Heading
2026-04-25 04:50 55.35655 -131.71041 42 ft 0 kts 45°
2026-04-25 05:06 55.35647 -131.71058 40 ft 4 kts 47°
2026-04-25 05:06 55.35630 -131.71092 39 ft 4 kts 39°
2026-04-25 05:07 55.35612 -131.71112 39 ft 4 kts 23°
2026-04-25 05:07 55.35587 -131.71124 41 ft 4 kts
2026-04-25 05:07 55.35571 -131.71126 40 ft 1 kts
2026-04-25 05:12 55.35574 -131.71126 41 ft 1 kts
2026-04-25 05:13 55.35579 -131.71124 41 ft 1 kts 13°
2026-04-25 05:13 55.35583 -131.71119 40 ft 2 kts 32°
2026-04-25 05:13 55.35587 -131.71085 39 ft 5 kts 109°
2026-04-25 05:13 55.35550 -131.71030 39 ft 10 kts 144°
2026-04-25 05:14 55.35479 -131.70940 41 ft 15 kts 142°
2026-04-25 05:14 55.35400 -131.70798 46 ft 15 kts 132°
2026-04-25 05:14 55.35336 -131.70685 55 ft 11 kts 135°
2026-04-25 05:15 55.35272 -131.70572 66 ft 2 kts 135°
2026-04-25 05:15 55.35269 -131.70567 67 ft 0 kts 136°
2026-04-25 05:15 55.35237 -131.70514 73 ft 16 kts 139°
2026-04-25 05:16 55.35160 -131.70398 92 ft 10 kts 139°
2026-04-25 05:16 55.35129 -131.70350 95 ft 2 kts 139°
2026-04-25 05:16 55.35115 -131.70328 96 ft 4 kts 139°
2026-04-25 05:16 55.35086 -131.70283 98 ft 7 kts 138°
2026-04-25 05:17 55.35040 -131.70211 101 ft 11 kts 138°
2026-04-25 05:17 55.34968 -131.70097 100 ft 17 kts 138°
2026-04-25 05:17 55.34911 -131.70035 102 ft 1 kts 174°
2026-04-25 05:17 55.34909 -131.70034 102 ft 0 kts 174°
2026-04-25 05:21 55.34902 -131.70034 100 ft 4 kts 179°
2026-04-25 05:21 55.34859 -131.70053 100 ft 10 kts 209°
2026-04-25 05:21 55.34850 -131.70159 102 ft 6 kts 310°
2026-04-25 05:22 55.34859 -131.70176 102 ft 1 kts 313°
2026-04-25 05:22 55.34861 -131.70181 102 ft 0 kts 313°
2026-04-25 05:23 55.34946 -131.70329 101 ft 58 kts 315°
2026-04-25 05:23 55.35460 -131.71212 101 ft 145 kts 316°
2026-04-25 05:24 55.36303 -131.72692 322 ft 197 kts 313°
2026-04-25 05:24 55.37251 -131.74595 1242 ft 213 kts 309°
2026-04-25 05:24 55.38125 -131.76468 3054 ft 182 kts 311°
2026-04-25 05:24 55.39026 -131.78231 3609 ft 220 kts 319°
2026-04-25 05:25 55.40240 -131.80206 3273 ft 236 kts 318°
2026-04-25 05:25 55.41377 -131.82242 3072 ft 228 kts 314°
2026-04-25 05:25 55.42414 -131.84321 2768 ft 227 kts 313°
2026-04-25 05:25 55.43425 -131.86451 2464 ft 224 kts 311°
2026-04-25 05:26 55.44509 -131.88492 1449 ft 246 kts 324°
2026-04-25 05:26 55.45801 -131.90360 1321 ft 232 kts 311°
2026-04-25 05:26 55.46486 -131.92807 1226 ft 226 kts 280°
2026-04-25 05:26 55.46370 -131.95832 905 ft 270 kts 252°
2026-04-25 05:27 55.45352 -131.98586 1921 ft 261 kts 225°
2026-04-25 05:27 55.44041 -132.00624 3266 ft 253 kts 224°
2026-04-25 05:27 55.42622 -132.02559 4009 ft 261 kts 212°
2026-04-25 05:27 55.40937 -132.03824 4774 ft 268 kts 195°
2026-04-25 05:28 55.39068 -132.04239 5500 ft 274 kts 179°
2026-04-25 05:28 55.37197 -132.03567 6241 ft 277 kts 156°
2026-04-25 05:28 55.35566 -132.01782 6995 ft 278 kts 139°
2026-04-25 05:28 55.34083 -131.99582 7691 ft 280 kts 137°
2026-04-25 05:29 55.32609 -131.97326 8411 ft 281 kts 137°
2026-04-25 05:29 55.31141 -131.95040 9133 ft 283 kts 136°
2026-04-25 05:29 55.29671 -131.92726 9815 ft 285 kts 136°
2026-04-25 05:29 55.28184 -131.90400 10452 ft 288 kts 137°
2026-04-25 05:30 55.26674 -131.88074 11050 ft 290 kts 137°
2026-04-25 05:30 55.25142 -131.85751 11647 ft 292 kts 137°
2026-04-25 05:30 55.23590 -131.83427 12231 ft 295 kts 138°
2026-04-25 05:30 55.22020 -131.81100 12825 ft 297 kts 138°
2026-04-25 05:31 55.20433 -131.78760 13403 ft 299 kts 138°
2026-04-25 05:31 55.18832 -131.76408 13960 ft 302 kts 139°
2026-04-25 05:31 55.17212 -131.74052 14429 ft 304 kts 139°
2026-04-25 05:31 55.15586 -131.71668 14899 ft 306 kts 138°
2026-04-25 05:32 55.13949 -131.69258 15343 ft 309 kts 138°
2026-04-25 05:32 55.12290 -131.66829 15756 ft 313 kts 139°
2026-04-25 05:32 55.10619 -131.64390 16205 ft 314 kts 139°
2026-04-25 05:32 55.08937 -131.61940 16654 ft 316 kts 139°
2026-04-25 05:33 55.07264 -131.59507 17063 ft 318 kts 139°
2026-04-25 05:33 55.05583 -131.57098 17462 ft 320 kts 141°
2026-04-25 05:33 55.03786 -131.54690 17861 ft 323 kts 142°
2026-04-25 05:33 55.02012 -131.52356 18249 ft 325 kts 142°
2026-04-25 05:34 55.00203 -131.49993 18643 ft 326 kts 142°
2026-04-25 05:34 54.98384 -131.47618 18994 ft 327 kts 142°
2026-04-25 05:34 54.96562 -131.45243 19345 ft 328 kts 142°
2026-04-25 05:34 54.94734 -131.42871 19708 ft 328 kts 142°
2026-04-25 05:35 54.92902 -131.40503 20067 ft 328 kts 143°
2026-04-25 05:35 54.91071 -131.38142 20440 ft 328 kts 142°
2026-04-25 05:35 54.89242 -131.35792 20812 ft 327 kts 142°
2026-04-25 05:35 54.87414 -131.33450 21186 ft 326 kts 142°
2026-04-25 05:36 54.85592 -131.31123 21564 ft 324 kts 142°
2026-04-25 05:36 54.83779 -131.28816 21951 ft 322 kts 143°
2026-04-25 05:36 54.81976 -131.26532 22345 ft 319 kts 143°
2026-04-25 05:36 54.80188 -131.24275 22739 ft 316 kts 143°
2026-04-25 05:37 54.78415 -131.22045 23144 ft 313 kts 143°
2026-04-25 05:37 54.76664 -131.19851 23554 ft 309 kts 143°
2026-04-25 05:37 54.74934 -131.17692 23942 ft 304 kts 143°
2026-04-25 05:37 54.73227 -131.15571 24288 ft 299 kts 143°
2026-04-25 05:38 54.71552 -131.13498 24645 ft 293 kts 143°
2026-04-25 05:38 54.69909 -131.11474 25011 ft 286 kts 143°
2026-04-25 05:38 54.68303 -131.09506 25372 ft 279 kts 142°
2026-04-25 05:38 54.66744 -131.07605 25734 ft 270 kts 142°
2026-04-25 05:39 54.65236 -131.05780 26095 ft 259 kts 142°
2026-04-25 05:39 54.63784 -131.04035 26396 ft 251 kts 142°
2026-04-25 05:39 54.62339 -131.02300 26388 ft 257 kts 142°
2026-04-25 05:39 54.60868 -131.00525 26324 ft 264 kts 142°
2026-04-25 05:40 54.59374 -130.98728 26514 ft 259 kts 142°
2026-04-25 05:40 54.57914 -130.96981 26735 ft 254 kts 142°
2026-04-25 05:40 54.56454 -130.95235 26722 ft 259 kts 142°
2026-04-25 05:40 54.54957 -130.93439 26699 ft 263 kts 142°
2026-04-25 05:41 54.53464 -130.91652 26900 ft 258 kts 143°
2026-04-25 05:41 54.52005 -130.89916 27124 ft 253 kts 143°
2026-04-25 05:41 54.50547 -130.88187 27122 ft 257 kts 143°
2026-04-25 05:41 54.49057 -130.86414 27100 ft 262 kts 143°
2026-04-25 05:42 54.47565 -130.84636 27249 ft 258 kts 143°
2026-04-25 05:42 54.46099 -130.82897 27416 ft 255 kts 143°
2026-04-25 05:42 54.44627 -130.81156 27419 ft 259 kts 143°
2026-04-25 05:42 54.43133 -130.79386 27410 ft 262 kts 143°
2026-04-25 05:43 54.41639 -130.77614 27551 ft 259 kts 143°
2026-04-25 05:43 54.40161 -130.75871 27686 ft 257 kts 143°
2026-04-25 05:43 54.38678 -130.74125 27697 ft 260 kts 143°
2026-04-25 05:43 54.37199 -130.72382 27715 ft 262 kts 143°
2026-04-25 05:44 54.35702 -130.70619 27846 ft 260 kts 143°
2026-04-25 05:44 54.34218 -130.68873 27951 ft 258 kts 143°
2026-04-25 05:44 54.32728 -130.67124 27956 ft 261 kts 143°
2026-04-25 05:44 54.31223 -130.65362 27977 ft 263 kts 143°
2026-04-25 05:45 54.29718 -130.63601 28097 ft 261 kts 143°
2026-04-25 05:45 54.28228 -130.61857 28194 ft 260 kts 143°
2026-04-25 05:45 54.26729 -130.60105 28195 ft 262 kts 142°
2026-04-25 05:45 54.25252 -130.58229 28166 ft 265 kts 139°
2026-04-25 05:46 54.23792 -130.56312 28258 ft 264 kts 139°
2026-04-25 05:46 54.22313 -130.54426 28290 ft 266 kts 136°
2026-04-25 05:46 54.21030 -130.52203 28119 ft 262 kts 124°
2026-04-25 05:46 54.19897 -130.49705 27513 ft 272 kts 126°
2026-04-25 05:47 54.18609 -130.47169 26686 ft 294 kts 131°
2026-04-25 05:47 54.17096 -130.44653 26440 ft 309 kts 135°
2026-04-25 05:47 54.15494 -130.42278 26834 ft 300 kts 137°
2026-04-25 05:47 54.13894 -130.40074 27245 ft 292 kts 139°
2026-04-25 05:48 54.12287 -130.37969 27466 ft 290 kts 140°
2026-04-25 05:48 54.10682 -130.35933 27721 ft 285 kts 141°
2026-04-25 05:48 54.09095 -130.33962 27981 ft 279 kts 141°
2026-04-25 05:48 54.07532 -130.32043 28178 ft 277 kts 141°
2026-04-25 05:49 54.05949 -130.30098 28142 ft 282 kts 141°
2026-04-25 05:49 54.04343 -130.28127 28153 ft 287 kts 140°
2026-04-25 05:49 54.02705 -130.26142 28153 ft 291 kts 141°
2026-04-25 05:49 54.01041 -130.24121 28157 ft 296 kts 141°
2026-04-25 05:50 53.99355 -130.22065 28150 ft 301 kts 141°
2026-04-25 05:50 53.95900 -130.17835 28152 ft 311 kts 141°
2026-04-25 05:51 53.92335 -130.13465 28151 ft 321 kts 141°
2026-04-25 05:51 53.88648 -130.08952 28135 ft 332 kts 141°
2026-04-25 05:52 53.84876 -130.04342 28139 ft 343 kts 141°
2026-04-25 05:52 53.80950 -129.99566 28138 ft 356 kts 141°